Date,TemperatureHighF,TemperatureAvgF,TemperatureLowF,DewpointHighF,DewpointAvgF,DewpointLowF,HumidityHigh,HumidityAvg,HumidityLow,PressureMaxIn,PressureMinIn,WindSpeedMaxMPH,WindSpeedAvgMPH,GustSpeedMaxMPH,PrecipitationSumIn
2012-1-1,65.8,53.2,38.3,47.2,42.5,36.8,96,69,46,30.19,30.10,13,1,14,0.00
2012-1-2,60.5,53.3,46.3,54.1,50.6,41.9,98,91,77,30.32,30.16,9,1,14,0.00
2012-1-3,64.0,50.2,40.9,54.5,48.1,40.1,99,93,69,30.37,30.27,12,1,12,0.00
2012-1-4,72.1,50.1,38.2,52.5,45.5,37.7,99,87,42,30.41,30.28,13,1,15,0.00
2012-1-5,59.6,47.7,39.0,54.0,45.4,38.2,99,92,74,30.33,30.17,17,2,18,0.01
2012-1-6,55.4,44.7,37.3,49.0,42.9,36.3,99,94,76,30.22,30.12,10,1,12,0.02
2012-1-7,66.5,46.0,33.1,47.2,37.0,29.3,99,76,26,30.27,30.14,12,2,15,0.01
2012-1-8,69.9,44.5,32.6,44.6,35.4,29.4,94,74,28,30.25,30.17,10,1,12,0.00
2012-1-9,70.6,44.6,30.4,47.8,38.4,29.1,100,82,34,30.26,30.15,12,1,13,0.01
2012-1-10,69.0,45.6,32.0,46.6,38.7,30.8,100,81,32,30.19,30.08,11,1,15,0.01
2012-1-11,65.6,43.0,31.3,50.2,39.2,30.5,98,88,50,30.15,30.02,12,1,13,0.01
2012-1-12,71.3,43.3,31.2,48.2,37.8,29.9,99,85,25,30.15,30.03,12,1,12,0.02
2012-1-13,70.3,46.7,32.5,44.3,36.1,31.2,97,73,29,30.23,30.14,7,0,16,0.00
2012-1-14,71.4,44.8,31.9,48.3,39.1,30.9,97,84,36,30.20,30.09,15,1,16,0.01
2012-1-15,51.9,46.0,41.4,45.0,39.9,31.6,99,80,63,30.19,30.02,24,5,29,0.01
2012-1-16,50.4,40.2,29.9,36.1,31.6,27.1,93,73,46,30.35,30.18,13,2,14,0.00
2012-1-17,50.4,37.5,27.2,38.7,32.7,26.0,97,84,59,30.43,30.34,11,1,12,0.00
2012-1-18,57.8,42.8,30.2,47.3,39.1,28.9,97,88,67,30.41,30.26,7,0,10,0.01
2012-1-19,51.9,47.8,40.1,51.2,47.0,38.8,99,97,94,30.26,30.02,17,2,17,0.66
2012-1-20,55.9,53.7,51.4,55.6,53.4,50.9,99,99,98,30.03,29.69,23,3,23,3.92
2012-1-21,53.5,48.5,40.2,53.1,45.6,39.2,99,90,74,30.16,29.72,28,3,28,0.22
2012-1-22,52.1,47.3,41.0,51.8,46.9,40.2,100,98,96,30.18,29.75,18,3,32,1.24
2012-1-23,55.4,51.9,47.9,54.8,50.2,46.0,100,94,85,30.17,29.63,20,5,22,0.49
2012-1-24,57.1,48.5,42.0,51.9,46.2,41.5,99,92,73,30.44,30.17,10,1,13,0.00
2012-1-25,66.1,53.9,48.7,59.0,52.0,47.0,99,94,76,30.45,30.34,13,1,16,0.01
2012-1-26,56.7,53.3,50.1,55.9,52.9,49.8,100,99,95,30.36,30.25,15,2,18,0.03
2012-1-27,62.0,48.5,37.7,54.1,45.9,36.9,100,92,56,30.30,30.21,12,1,13,0.01
2012-1-28,68.7,44.4,31.9,49.2,37.6,29.8,99,82,26,30.35,30.24,11,1,11,0.01
2012-1-29,67.8,48.0,36.1,51.8,43.4,34.9,99,86,49,30.29,30.14,9,1,10,0.01
2012-1-30,61.1,49.2,42.0,54.7,47.4,41.2,100,94,76,30.15,30.02,12,1,14,0.00
2012-1-31,59.8,49.4,42.6,53.2,46.8,41.4,97,91,75,30.21,30.09,14,1,16,0.00
2012-2-1,44.3,44.3,44.3,43.5,43.5,43.5,97,97,97,30.20,30.20,0,0,2,0.00
2012-2-3,41.3,39.9,38.8,40.0,38.7,37.7,97,96,95,30.06,30.05,1,0,2,0.00
2012-2-4,69.4,47.7,34.9,48.5,39.8,34.2,99,78,38,30.11,30.04,8,0,14,0.01
2012-2-5,66.8,48.9,35.2,46.6,38.8,34.3,99,73,34,30.12,29.99,6,0,10,0.01
2012-2-6,66.3,52.7,42.3,48.7,42.9,38.5,95,71,44,29.99,29.76,16,1,24,0.19
2012-2-7,54.1,50.4,47.6,53.5,49.8,47.1,99,98,95,30.12,29.75,5,0,12,0.43
2012-2-8,68.7,50.8,42.7,57.5,47.8,41.9,100,91,57,30.27,30.11,11,1,11,0.01
2012-2-9,73.3,51.4,38.4,56.8,46.9,37.9,100,87,49,30.29,30.15,8,0,10,0.01
2012-2-10,58.4,50.5,40.8,58.0,49.8,40.0,99,98,92,30.20,30.09,9,0,15,0.16
2012-2-11,55.1,51.0,46.2,52.2,49.4,44.7,99,94,87,30.10,30.01,15,4,18,0.03
2012-2-12,60.7,47.3,38.8,53.7,45.3,38.3,100,93,71,30.08,29.95,15,1,16,0.20
2012-2-13,54.3,48.5,40.8,48.9,45.0,39.4,98,88,79,30.03,29.91,24,7,33,0.12
2012-2-14,54.4,45.3,34.3,49.4,42.1,33.8,99,89,72,30.12,30.01,20,3,23,0.05
2012-2-15,56.2,45.7,35.7,46.8,39.1,32.8,96,79,44,30.21,30.06,19,4,22,0.00
2012-2-16,61.4,43.7,31.9,48.3,38.9,30.4,99,86,32,30.28,30.21,13,1,16,0.01
2012-2-17,56.2,47.1,37.4,52.7,45.6,36.5,99,95,87,30.28,30.19,16,3,18,0.01
2012-2-18,54.7,49.8,44.1,50.4,44.8,37.5,99,83,68,30.22,30.13,26,8,27,0.00
2012-2-19,56.7,45.6,38.2,45.1,39.8,35.3,94,81,54,30.17,30.07,15,2,17,0.00
2012-2-20,62.9,50.5,44.9,52.1,47.9,43.0,98,91,67,30.24,30.09,10,1,11,0.01
2012-2-21,63.3,50.9,44.8,55.6,48.6,44.5,100,92,70,30.32,30.22,13,2,16,0.00
2012-2-22,63.2,50.1,40.4,55.5,47.6,39.9,99,92,64,30.30,30.12,23,5,23,0.01
2012-2-23,60.9,49.8,39.6,50.4,45.6,38.8,99,86,63,30.12,29.99,16,2,18,0.00
2012-2-24,74.8,51.0,37.9,50.6,43.0,36.3,99,79,27,30.22,30.01,24,5,31,0.01
2012-2-25,54.4,48.2,36.8,45.4,40.4,33.9,91,75,56,30.36,30.21,24,8,30,0.00
2012-2-26,57.7,41.3,29.7,42.9,35.5,28.7,98,81,49,30.22,29.86,18,2,23,0.01
2012-2-27,52.2,41.0,29.9,40.9,35.8,28.9,98,83,60,29.99,29.83,24,4,25,0.00
2012-2-28,57.8,47.1,34.6,48.2,40.7,32.8,97,80,53,30.23,29.99,19,3,27,0.08
2012-2-29,56.1,48.3,39.3,50.1,45.5,38.3,98,91,71,30.25,30.03,17,2,24,0.40
2012-3-1,56.7,47.0,37.6,51.3,44.2,36.8,100,90,72,30.28,30.21,19,3,24,0.18
2012-3-2,63.4,44.6,31.6,45.0,37.8,30.8,99,81,33,30.37,30.28,15,2,17,0.00
2012-3-3,71.3,48.4,34.7,49.7,40.5,33.7,99,78,35,30.35,30.25,13,1,18,0.01
2012-3-4,75.6,50.8,36.9,52.0,43.8,35.9,98,81,33,30.25,30.08,15,2,17,0.00
2012-3-5,52.5,46.2,37.6,49.3,44.7,37.1,99,95,86,30.13,30.03,19,4,20,0.01
2012-3-6,52.6,46.8,35.7,48.8,39.2,33.4,99,76,54,30.11,29.97,28,9,30,0.02
2012-3-7,60.2,43.8,32.6,40.3,32.9,23.7,94,69,26,30.20,30.10,15,2,17,0.00
2012-3-8,65.2,47.0,31.0,49.3,38.3,22.9,98,75,24,30.36,30.20,13,2,13,0.00
2012-3-9,71.8,48.1,34.4,50.4,41.8,33.4,98,82,34,30.35,30.17,18,2,20,0.00
2012-3-10,55.9,47.5,41.3,51.0,45.3,40.0,98,92,82,30.17,30.02,12,2,15,0.00
2012-3-11,57.0,49.1,38.9,53.2,45.9,37.6,97,89,69,30.08,30.01,14,2,15,0.09
2012-3-12,59.4,47.6,35.4,50.6,43.4,34.6,99,87,63,30.05,29.92,18,2,21,0.03
2012-3-13,52.1,51.7,51.3,51.8,51.2,50.4,99,98,95,29.97,29.84,19,6,26,2.71
2012-3-14,54.8,53.1,51.8,54.8,52.9,51.5,100,99,99,30.12,29.95,15,2,20,1.35
2012-3-15,59.1,54.9,52.9,57.9,54.3,52.5,100,98,91,30.15,30.05,11,1,17,0.05
2012-3-16,55.2,52.7,46.1,55.1,52.0,44.5,100,98,88,30.06,29.74,17,2,20,1.43
2012-3-17,53.2,46.0,39.7,47.2,42.3,39.2,100,88,67,29.74,29.55,22,5,30,0.01
2012-3-18,51.9,46.4,42.0,41.9,38.7,33.8,90,75,54,29.97,29.67,26,9,31,0.02
2012-3-19,59.2,46.3,36.3,43.1,37.9,33.1,96,74,49,30.11,29.96,13,1,15,0.00
2012-3-20,64.5,52.3,45.5,52.5,46.7,40.0,93,82,65,30.21,30.10,7,0,10,0.00
2012-3-21,66.0,54.9,48.1,58.4,52.2,46.5,98,91,75,30.20,30.00,12,2,14,0.00
2012-3-22,54.9,50.2,45.2,52.5,45.1,39.6,97,84,62,30.03,29.96,19,4,24,0.01
2012-3-23,61.4,48.4,36.1,47.5,41.5,35.1,98,79,45,30.10,29.87,13,2,17,0.00
2012-3-24,51.5,46.0,42.7,47.8,44.1,41.1,98,93,68,29.93,29.82,13,1,17,1.30
2012-3-25,57.2,47.6,42.7,51.0,44.5,42.2,99,90,64,29.91,29.79,15,2,18,0.15
2012-3-26,57.1,47.7,36.6,49.4,43.7,35.8,99,87,70,30.08,29.91,16,2,23,0.01
2012-3-27,53.3,51.4,49.1,53.0,50.4,47.6,99,96,87,30.01,29.86,20,5,28,1.13
2012-3-28,66.0,55.8,48.1,55.1,51.5,47.0,98,87,58,30.13,29.93,15,2,18,0.03
2012-3-29,59.6,53.0,46.7,54.2,51.1,45.8,100,93,80,30.13,30.07,13,1,14,0.00
2012-3-30,65.0,56.1,53.2,59.2,54.5,52.6,99,95,81,30.11,29.90,15,2,16,0.01
2012-3-31,58.9,52.7,47.5,55.1,50.2,45.1,98,91,73,30.04,29.71,21,4,30,0.71
2012-4-1,56.6,49.9,42.8,46.4,43.1,39.0,93,78,62,30.31,30.04,22,8,30,0.00
2012-4-2,63.1,48.1,38.1,50.1,43.9,37.3,100,87,49,30.30,30.08,18,2,19,0.00
2012-4-3,67.0,51.7,43.0,55.1,48.0,41.9,98,88,61,30.12,30.02,20,2,25,0.07
2012-4-4,55.7,48.6,40.6,45.9,42.3,38.3,98,80,55,30.22,30.12,23,6,29,0.01
2012-4-5,54.8,46.6,39.5,43.4,39.1,36.0,94,76,60,30.20,30.12,26,7,28,0.00
2012-4-6,60.1,45.9,34.1,45.0,38.7,32.8,97,78,43,30.29,30.19,16,3,18,0.00
2012-4-7,65.8,47.1,33.6,48.2,40.1,32.8,98,79,37,30.20,30.04,15,2,15,0.00
2012-4-8,65.3,48.5,34.2,50.4,42.6,33.4,98,82,49,30.10,30.01,10,1,12,0.01
2012-4-9,70.4,53.0,41.2,54.2,45.5,23.2,97,79,17,30.03,29.82,13,1,15,0.00
2012-4-10,54.2,52.4,50.8,53.6,51.5,48.2,99,97,81,29.89,29.81,15,2,22,0.35
2012-4-11,60.8,53.6,48.7,54.7,51.1,48.4,99,92,78,29.95,29.81,22,3,27,0.03
2012-4-12,59.6,51.7,45.8,51.8,48.9,45.1,100,91,66,30.03,29.76,25,4,26,1.00
2012-4-13,56.9,50.2,44.8,48.7,45.8,43.8,99,86,69,29.90,29.72,23,6,30,0.13
2012-4-14,60.4,51.7,44.6,51.1,45.9,40.2,96,81,67,30.14,29.89,15,6,19,0.00
2012-4-15,66.2,53.2,47.6,56.2,49.4,45.3,97,87,65,30.23,30.14,14,3,16,0.00
2012-4-16,60.1,52.0,44.7,52.2,48.6,43.1,98,89,71,30.25,30.20,17,3,17,0.00
2012-4-17,61.1,54.1,50.4,56.2,51.8,49.3,98,92,80,30.21,30.11,14,3,16,0.00
2012-4-18,61.9,54.9,49.3,55.6,51.0,46.8,97,87,69,30.18,30.12,18,5,18,0.00
2012-4-19,64.3,57.7,53.6,59.4,55.5,52.5,99,93,82,30.18,30.10,18,4,22,0.00
2012-4-20,68.3,58.9,52.2,60.8,54.1,49.9,99,85,64,30.10,29.99,14,2,16,0.00
2012-4-21,70.5,56.9,47.2,61.1,53.0,46.1,98,88,66,30.01,29.87,17,3,17,0.00
2012-4-22,70.9,57.3,50.2,61.6,54.2,49.2,99,90,70,29.94,29.88,16,2,19,0.00
2012-4-23,59.6,56.0,53.5,55.9,53.7,52.2,97,92,85,30.01,29.92,12,2,17,0.02
2012-4-24,71.2,60.1,55.4,60.9,56.0,53.3,98,87,65,30.05,29.97,13,2,16,0.01
2012-4-25,72.1,59.6,54.8,61.6,56.0,52.8,97,88,64,30.02,29.78,11,1,14,0.01
2012-4-26,61.4,55.2,50.9,55.3,50.1,43.8,98,84,60,30.22,29.79,19,4,25,0.06
2012-4-27,60.9,52.3,42.0,51.8,46.9,40.7,97,82,66,30.26,30.16,19,5,23,0.00
2012-4-28,61.9,55.1,48.8,54.8,50.5,46.0,93,85,74,30.16,29.92,20,5,20,0.00
2012-4-29,68.8,54.1,44.1,59.8,50.8,43.1,100,89,72,29.95,29.89,17,4,21,0.00
2012-4-30,64.0,54.1,48.7,56.8,51.0,47.8,98,90,67,29.99,29.92,23,6,25,0.00
2012-5-1,57.7,52.0,47.5,49.7,47.2,44.7,96,84,71,29.97,29.90,23,8,30,0.00
2012-5-2,57.3,50.5,42.4,48.2,45.3,40.5,96,83,68,30.00,29.90,21,4,23,0.00
2012-5-3,61.6,53.1,46.7,59.7,51.9,45.1,98,96,89,30.11,29.96,15,1,19,0.06
2012-5-4,57.6,52.4,45.5,50.9,47.5,43.5,97,84,69,30.24,30.11,27,8,28,0.00
2012-5-5,62.4,51.3,39.2,52.9,46.3,38.4,99,84,64,30.24,30.09,17,3,20,0.01
2012-5-6,71.3,53.6,40.2,54.8,47.5,39.3,100,82,52,30.10,30.03,16,3,19,0.01
2012-5-7,70.5,55.0,43.9,60.2,50.7,43.1,99,86,64,30.03,29.98,18,4,19,0.00
2012-5-8,70.2,55.5,46.7,60.3,51.1,45.1,98,86,61,30.00,29.94,14,3,18,0.00
2012-5-9,64.6,52.1,43.2,57.1,48.3,42.1,99,88,73,29.98,29.92,20,5,21,0.01
2012-5-10,71.5,51.9,42.3,57.2,47.4,41.0,98,86,53,29.95,29.91,12,2,13,0.00
2012-5-22,62.4,56.8,53.2,55.4,52.3,49.8,99,86,68,30.16,30.08,22,10,25,0.00
2012-5-23,60.0,54.8,51.1,52.0,49.5,46.9,95,83,68,30.08,29.95,28,12,33,0.00
2012-5-24,60.4,53.8,49.3,53.0,48.6,45.9,91,83,71,29.96,29.78,28,12,34,0.00
2012-5-25,59.9,53.1,48.4,51.3,47.8,45.1,93,83,71,29.85,29.75,25,10,34,0.00
2012-5-26,60.0,52.5,44.3,53.0,49.0,43.0,98,88,76,30.09,29.85,23,5,24,0.00
2012-5-27,60.2,54.0,50.1,53.6,50.4,48.2,95,88,75,30.17,30.08,18,6,19,0.00
2012-5-28,61.6,54.2,49.7,53.6,50.0,45.1,97,86,67,30.10,30.03,20,5,25,0.00
2012-5-29,64.3,54.4,49.1,54.6,50.1,46.9,93,86,69,30.08,30.02,19,5,21,0.00
2012-5-30,72.0,55.6,49.4,60.8,51.3,47.4,96,86,64,30.10,30.05,17,4,20,0.00
2012-5-31,73.8,56.8,43.8,60.6,51.5,42.7,98,84,57,30.06,29.87,17,3,17,0.00
2012-6-3,59.0,54.3,52.3,51.8,50.9,50.0,93,88,77,29.96,29.93,5,0,5,0.00
2012-6-4,61.1,55.8,51.9,57.0,52.8,48.2,98,90,76,30.12,29.89,23,3,25,0.05
2012-6-5,60.6,54.4,48.1,49.3,47.4,45.8,94,78,62,30.20,30.12,27,8,28,0.00
2012-6-6,61.1,53.6,46.3,51.0,47.6,44.1,94,81,67,30.16,30.00,23,6,29,0.00
2012-6-7,65.0,56.3,48.4,57.7,52.3,46.1,95,87,70,30.05,29.99,23,8,28,0.00
2012-6-8,62.3,55.0,48.0,51.8,48.5,46.2,95,80,61,30.02,29.94,27,9,31,0.00
2012-6-9,64.5,55.5,46.7,53.2,48.3,42.7,92,77,61,30.02,29.92,19,7,22,0.00
2012-6-10,77.3,58.5,41.6,58.2,48.3,40.4,100,73,32,29.92,29.88,14,3,16,0.00
2012-6-11,70.3,56.8,46.2,58.7,50.8,44.8,97,81,60,29.98,29.89,17,4,20,0.00
2012-6-12,65.3,55.0,45.1,58.2,51.5,43.8,97,88,70,30.00,29.94,26,7,29,0.00
2012-6-13,64.2,55.3,49.5,57.5,51.5,48.5,100,88,72,29.94,29.77,19,6,20,0.00
2012-6-14,62.9,54.4,46.4,53.8,49.4,45.0,97,84,68,29.83,29.78,25,7,27,0.00
2012-6-15,65.8,56.2,45.4,54.4,50.1,43.7,96,81,65,29.83,29.79,19,4,20,0.00
2012-6-16,76.0,61.4,49.4,61.8,54.3,47.7,97,79,58,29.86,29.77,16,3,16,0.00
2012-6-17,74.3,62.6,54.1,61.6,55.6,51.9,96,79,61,29.91,29.77,18,2,18,0.00
2012-6-18,69.6,57.7,50.0,58.6,52.5,47.2,96,84,66,29.92,29.82,15,2,17,0.00
2012-6-19,76.4,59.2,47.3,60.6,52.3,45.9,96,80,54,29.93,29.84,12,2,14,0.00
2012-6-20,77.9,58.7,47.5,61.3,52.8,46.0,97,82,55,29.85,29.82,16,4,18,0.00
2012-6-21,62.0,54.5,50.5,53.6,50.7,48.9,96,87,73,29.98,29.82,19,3,23,0.00
2012-6-22,70.3,57.1,52.3,59.9,53.6,48.3,97,89,67,29.98,29.89,16,2,17,0.00
2012-6-23,66.7,57.4,49.8,56.3,52.2,48.1,96,84,64,29.96,29.87,10,2,13,0.00
2012-6-24,70.3,57.4,48.5,54.5,49.8,45.7,97,78,48,30.06,29.94,11,1,14,0.00
2012-6-25,71.3,58.8,48.5,59.0,53.1,47.1,98,83,58,30.09,30.03,10,1,13,0.00
2012-6-26,65.5,56.8,46.5,56.1,51.6,45.4,99,83,68,30.07,29.92,20,6,25,0.01
2012-6-27,75.9,56.6,44.6,60.2,51.7,43.4,99,85,55,29.96,29.89,19,4,22,0.00
2012-6-28,65.6,58.1,50.1,57.5,54.3,48.2,98,88,72,30.10,29.96,16,5,20,0.00
2012-6-29,71.9,60.3,54.1,62.1,57.1,53.5,99,90,68,30.12,30.04,15,2,17,0.00
2012-6-30,73.1,62.5,55.1,64.9,59.5,54.3,99,91,73,30.05,29.95,14,3,15,0.00
2012-7-1,64.5,59.7,55.9,60.8,57.9,54.2,98,94,86,29.97,29.88,16,4,17,0.00
2012-7-2,64.5,58.0,53.1,58.9,54.2,50.9,96,87,74,29.92,29.86,21,6,23,0.00
2012-7-3,65.7,57.0,49.8,56.4,52.0,48.2,96,84,71,29.93,29.83,17,5,20,0.00
2012-7-4,72.0,58.7,49.3,60.1,53.1,47.7,96,83,63,29.89,29.82,13,2,18,0.00
2012-7-5,63.6,56.4,50.2,54.5,51.9,48.3,95,86,70,30.01,29.89,20,4,22,0.00
2012-7-6,71.1,57.9,49.8,60.6,53.1,47.9,96,85,64,30.03,29.98,17,4,20,0.00
2012-7-7,72.1,56.2,47.6,59.6,52.1,46.7,98,87,62,30.00,29.96,17,3,20,0.00
2012-7-8,52.6,11.1,51.6,51.5,-67.8,-99.9,96,20,95,30.05,29.98,5,-786,6,0.00
2012-7-9,-200.0,0.0,200.0,-99.9,-99.9,-99.9,0,0,100,30.06,29.97,0,-999,0,0.00
2012-7-10,-200.0,0.0,200.0,-99.9,-99.9,-99.9,0,0,100,29.97,29.87,0,-999,0,0.00
2012-7-11,70.8,36.5,51.1,59.8,-8.8,-99.9,97,46,65,29.89,29.83,17,-408,19,0.00
2012-7-12,71.7,36.3,53.3,61.0,-8.2,-99.9,92,47,67,29.87,29.82,17,-403,19,0.00
2012-7-13,59.2,32.4,53.8,54.7,-11.6,-99.9,94,51,82,29.95,29.85,14,-419,16,0.00
2012-7-14,-200.0,0.0,200.0,-99.9,-99.9,-99.9,0,0,100,29.96,29.88,0,-999,0,0.00
2012-7-15,72.4,38.1,54.3,61.2,-5.5,-99.9,95,49,67,29.93,29.85,14,-398,18,0.00
2012-7-16,-200.0,0.0,200.0,-99.9,-99.9,-99.9,0,0,100,29.92,29.83,0,-999,0,0.00
2012-7-17,70.8,30.0,53.7,59.9,-25.9,-99.9,92,37,64,30.01,29.90,9,-525,12,0.00
2012-7-18,68.2,34.1,57.9,57.5,-14.5,-99.9,89,43,64,30.04,29.98,17,-445,19,0.00
2012-7-19,71.9,32.6,58.0,62.1,-18.4,-99.9,94,43,67,30.06,29.98,15,-479,17,0.00
2012-7-20,-200.0,0.0,200.0,-99.9,-99.9,-99.9,0,0,100,30.10,30.01,0,-999,0,0.00
2012-7-21,76.3,39.3,54.5,62.8,-5.6,-99.9,95,46,59,30.02,29.91,16,-395,17,0.00
2012-7-22,-200.0,0.0,200.0,-99.9,-99.9,-99.9,0,0,100,29.92,29.86,0,-999,0,0.00
2012-7-23,71.8,40.7,56.0,59.7,0.7,-99.9,92,51,60,29.95,29.88,12,-353,18,0.00
2012-7-24,71.5,35.3,56.8,60.5,-14.2,-99.9,91,42,65,29.99,29.94,14,-452,14,0.00
2012-7-25,70.9,31.6,56.1,59.7,-22.3,-99.9,92,39,66,30.02,29.96,11,-502,15,0.00
2012-7-26,68.1,29.6,55.5,59.4,-24.7,-99.9,93,40,72,30.01,29.96,10,-516,14,0.00
2012-7-27,71.2,36.3,55.5,60.9,-11.1,-99.9,94,45,67,30.03,29.98,10,-434,15,0.00
2012-7-28,65.0,27.8,54.7,57.3,-27.8,-99.9,96,40,75,30.08,30.00,17,-531,20,0.00
2012-7-29,69.7,28.6,54.7,59.5,-27.1,-99.9,94,39,68,30.05,29.98,17,-527,20,0.00
2012-7-30,74.3,31.0,54.6,61.2,-25.2,-99.9,90,36,59,29.99,29.91,14,-517,16,0.00
2012-7-31,77.4,39.3,54.2,62.8,-5.0,-99.9,93,46,55,29.99,29.94,13,-391,17,0.00
2012-8-1,75.0,41.5,52.6,61.5,3.8,-99.9,97,53,58,30.06,29.98,14,-331,15,0.00
2012-8-2,73.1,39.5,53.9,60.4,-0.2,-99.9,95,52,62,30.01,29.91,12,-356,14,0.00
2012-8-3,74.3,31.1,53.6,61.3,-23.2,-99.9,95,39,62,29.91,29.84,10,-506,15,0.00
2012-8-4,-200.0,0.0,200.0,-99.9,-99.9,-99.9,0,0,100,29.99,29.86,0,-999,0,0.00
2012-8-5,72.2,22.8,57.2,61.8,-42.8,-99.9,89,30,66,30.10,29.97,11,-633,12,0.00
2012-8-6,66.8,35.4,56.3,58.2,-11.2,-99.9,93,46,72,30.15,30.07,16,-428,18,0.00
2012-8-7,67.4,31.2,56.0,57.0,-21.9,-99.9,90,39,67,30.08,30.00,19,-492,21,0.00
2012-8-8,-200.0,0.0,200.0,-99.9,-99.9,-99.9,0,0,100,30.01,29.99,0,-999,0,0.00
2012-9-19,55.5,33.6,53.6,51.6,-6.3,-99.9,92,55,86,30.08,30.06,14,-377,16,0.00
2012-9-20,62.7,35.2,48.9,54.5,-8.3,-99.9,99,48,71,30.09,30.00,16,-394,20,0.00
2012-9-21,69.3,34.3,52.4,56.1,-14.5,-99.9,96,42,55,30.02,29.91,16,-438,19,0.00
2012-9-22,72.2,36.1,45.9,57.9,-9.0,-99.9,99,46,59,29.94,29.89,15,-403,16,0.00
2012-9-23,70.1,35.5,48.8,59.2,-7.9,-99.9,98,50,68,29.98,29.90,13,-402,16,0.00
2012-9-24,69.3,33.0,51.8,58.6,-15.8,-99.9,94,44,67,29.98,29.90,12,-451,15,0.00
2012-9-25,70.7,32.9,52.0,59.7,-14.5,-99.9,98,47,66,29.94,29.88,15,-446,15,0.00
2012-9-26,66.6,32.1,51.9,58.2,-16.7,-99.9,96,45,70,29.91,29.85,12,-457,14,0.00
2012-9-27,69.8,34.7,51.8,59.7,-10.5,-99.9,96,48,69,29.94,29.86,14,-419,16,0.00
2012-9-28,68.8,34.9,54.2,58.6,-13.2,-99.9,93,45,69,29.98,29.89,12,-439,15,0.00
2012-9-29,65.2,29.5,52.1,57.9,-23.0,-99.9,96,42,73,30.06,29.97,16,-497,16,0.00
2012-9-30,71.0,37.4,49.1,59.7,-8.7,-99.9,99,45,55,30.07,29.99,14,-410,17,0.00
2012-10-1,85.8,42.9,50.6,60.3,-7.8,-99.9,97,34,28,30.00,29.89,13,-402,15,0.00
2012-10-2,90.6,39.0,58.1,61.0,-15.6,-99.9,88,33,25,29.89,29.80,14,-457,16,0.00
2012-10-3,85.7,39.7,58.5,60.6,-13.3,-99.9,92,35,29,30.01,29.81,14,-447,16,0.00
2012-10-4,67.7,24.4,58.0,59.3,-38.8,-99.9,86,31,69,30.15,30.00,9,-606,12,0.00
2012-10-5,73.9,35.5,58.5,61.9,-14.3,-99.9,90,42,64,30.17,30.08,9,-459,10,0.00
2012-10-6,67.9,34.5,54.7,57.0,-15.3,-99.9,98,41,58,30.08,29.99,13,-448,14,0.00
2012-10-7,68.8,32.1,53.9,57.8,-19.5,-99.9,95,41,61,30.03,29.97,14,-478,16,0.00
2012-10-8,74.0,37.2,47.3,59.7,-9.1,-99.9,99,45,57,30.05,30.01,7,-418,11,0.00
2012-10-9,76.3,33.0,54.9,60.7,-20.1,-99.9,91,38,54,30.03,29.96,13,-487,14,0.00
2012-10-10,63.5,31.3,56.0,56.0,-18.8,-99.9,90,44,75,29.98,29.90,16,-472,18,0.00
2012-10-11,-200.0,0.0,200.0,-99.9,-99.9,-99.9,0,0,100,29.98,29.89,0,-999,0,0.00
2012-10-12,61.2,26.1,56.0,55.3,-32.2,-99.9,89,36,78,30.24,29.96,5,-559,7,0.00
2012-10-13,70.3,34.2,55.9,58.5,-16.5,-99.9,97,41,60,30.32,30.19,15,-464,16,0.00
2012-10-14,67.0,28.5,58.2,61.1,-27.7,-99.9,98,40,80,30.23,30.09,13,-543,16,0.00
2012-10-15,75.1,35.6,57.5,62.7,-13.7,-99.9,99,44,63,30.10,29.98,17,-458,20,0.00
2012-10-16,67.6,29.8,55.4,62.6,-24.2,-99.9,98,42,82,30.03,29.90,17,-520,22,0.00
2012-10-17,74.5,37.1,47.5,61.1,-11.0,-99.9,99,42,55,29.93,29.83,14,-427,15,0.00
2012-10-18,90.9,43.6,50.0,63.0,-8.4,-99.9,91,34,22,30.03,29.88,13,-412,15,0.00
2012-10-19,69.8,20.7,56.1,63.3,-47.6,-99.9,96,29,79,30.06,29.94,10,-670,10,0.00
2012-10-20,63.7,28.1,54.0,58.0,-26.5,-99.9,99,40,74,29.95,29.82,17,-514,24,0.00
2012-10-21,62.2,30.8,47.6,49.5,-20.7,-99.9,96,38,57,29.95,29.83,16,-460,18,0.00
2012-10-22,63.8,31.4,51.8,58.4,-16.3,-99.9,98,47,68,29.94,29.69,10,-454,16,0.03
2012-10-23,66.0,32.2,47.7,55.1,-16.1,-99.9,99,44,57,30.06,29.93,9,-443,11,0.00
2012-10-24,67.5,33.3,51.8,58.3,-13.5,-99.9,99,47,61,30.21,30.02,6,-437,10,0.01
2012-10-25,66.2,30.6,52.8,58.0,-21.2,-99.9,98,41,66,30.27,30.19,15,-487,16,0.00
2012-10-26,67.9,34.5,44.0,56.5,-13.4,-99.9,99,43,50,30.25,30.11,16,-430,16,0.00
2012-10-27,73.0,32.5,55.4,62.1,-20.4,-99.9,99,40,65,30.11,29.97,14,-494,17,0.00
2012-10-28,69.8,33.8,49.6,63.0,-11.4,-99.9,99,51,75,30.04,29.97,16,-430,19,0.00
2012-10-29,69.3,31.7,52.5,62.3,-17.4,-99.9,100,47,75,30.12,30.04,15,-474,18,0.00
2012-10-30,63.9,26.5,56.4,60.1,-30.1,-99.9,100,41,86,30.09,29.99,13,-556,14,0.00
2012-10-31,-200.0,0.0,200.0,-99.9,-99.9,-99.9,0,0,100,30.02,29.97,0,-999,0,0.00
2012-11-1,68.9,31.5,53.3,64.5,-17.2,-99.9,100,48,74,30.08,29.99,10,-473,14,0.00
2012-11-2,64.1,24.1,51.3,55.7,-39.0,-99.9,99,30,61,30.11,30.05,11,-596,13,0.00
2012-11-5,86.5,55.5,59.4,59.8,14.7,-99.9,87,41,34,30.09,30.03,6,-271,7,0.09
2012-11-6,85.5,36.9,55.8,63.3,-17.2,-99.9,99,36,41,30.08,30.00,12,-477,13,0.00
2012-11-7,-200.0,0.0,200.0,-99.9,-99.9,-99.9,0,0,100,30.07,29.94,0,-999,0,0.00
2012-11-8,60.4,27.9,47.3,52.4,-23.0,-99.9,94,42,69,29.96,29.90,13,-477,18,0.09
2012-11-9,56.2,33.9,38.4,48.3,1.8,-99.9,99,60,63,30.00,29.91,13,-286,15,0.00
2012-11-10,56.9,44.4,34.6,47.3,40.1,33.8,99,86,61,30.27,30.00,13,2,20,0.01
2012-11-11,64.7,45.0,33.1,50.8,40.4,32.3,99,86,49,30.40,30.27,6,0,8,0.01
2012-11-12,67.7,47.3,36.4,48.4,40.7,35.6,98,81,37,30.40,30.27,7,0,10,0.00
2012-11-13,69.6,50.3,38.1,52.4,43.1,37.1,98,80,33,30.28,30.10,12,1,14,0.00
2012-11-14,74.8,53.7,42.5,55.3,47.7,40.6,96,82,49,30.13,30.02,11,0,11,0.01
2012-11-15,70.7,57.0,46.3,54.9,50.4,40.7,97,80,34,30.02,29.96,12,1,15,0.01
2012-11-16,59.6,56.9,54.5,57.2,54.7,52.9,99,93,83,30.00,29.85,7,0,11,1.55
2012-11-17,62.4,57.0,51.1,60.2,56.3,50.5,99,97,89,30.02,29.78,15,2,20,1.01
2012-11-18,61.8,52.0,43.9,56.9,49.9,43.4,100,93,73,30.18,30.02,6,0,8,0.01
2012-11-19,64.5,57.4,52.0,56.8,53.8,50.7,97,88,74,30.23,30.15,17,2,17,0.02
2012-11-20,59.9,58.3,56.5,59.3,57.8,55.5,99,98,95,30.15,30.00,17,3,20,0.91
2012-11-21,61.3,55.6,43.5,57.7,53.0,42.5,100,91,70,30.23,30.03,13,1,15,0.06
2012-11-22,63.2,48.3,39.4,53.9,45.1,38.9,99,90,60,30.28,30.19,13,1,14,0.02
2012-11-23,72.1,49.5,38.3,55.7,46.0,37.5,99,89,50,30.28,30.18,11,0,12,0.00
2012-11-24,64.5,50.7,38.2,55.8,48.2,37.5,99,92,70,30.21,30.05,13,1,16,0.01
2012-11-25,65.9,55.2,48.5,57.8,53.3,47.7,99,94,72,30.05,29.94,9,1,10,0.00
2012-11-26,64.3,51.0,43.3,58.5,49.5,43.0,99,95,79,30.08,29.98,12,1,12,0.01
2012-11-27,60.4,54.9,46.7,53.9,51.3,45.5,99,88,76,30.11,29.97,13,1,19,0.00
2012-11-28,61.1,57.5,55.2,59.0,54.8,50.4,98,91,75,30.03,29.80,14,2,23,1.76
2012-11-29,60.3,59.0,57.3,59.3,57.3,55.0,99,94,85,30.03,29.83,21,5,31,0.79
2012-11-30,59.8,58.7,57.4,59.5,58.1,56.8,99,98,94,30.00,29.76,28,4,34,1.28
2012-12-1,60.7,58.7,57.0,60.4,58.1,56.4,100,98,94,30.04,29.86,16,2,28,0.81
2012-12-2,60.6,54.6,44.0,60.3,52.8,43.5,99,94,74,30.13,29.71,22,2,32,1.35
2012-12-3,63.4,49.7,40.6,55.0,47.7,40.3,100,94,69,30.22,30.11,10,0,10,0.02
2012-12-4,60.1,54.3,49.9,56.2,52.7,49.2,99,95,81,30.23,30.13,12,1,17,0.44
2012-12-5,62.2,58.7,55.5,61.9,58.5,55.2,100,99,98,30.17,30.10,11,1,16,0.36
2012-12-6,56.9,51.1,41.6,55.4,49.0,41.0,100,93,82,30.16,30.09,11,2,17,0.00
2012-12-7,57.4,46.0,40.0,52.0,44.0,39.4,100,93,70,30.17,30.08,9,1,10,0.02
2012-12-8,61.3,45.7,36.6,52.9,43.8,36.1,100,94,59,30.15,30.05,12,0,12,0.01
2012-12-9,62.9,47.9,38.5,53.2,45.0,38.0,99,91,59,30.20,30.11,11,1,11,0.01
2012-12-10,66.4,48.9,40.1,55.6,45.9,39.6,100,90,65,30.25,30.12,8,0,9,0.01
2012-12-11,52.6,46.4,37.5,51.5,45.1,37.0,100,95,85,30.12,29.86,8,0,12,0.11
2012-12-12,53.7,46.9,36.1,49.7,43.9,35.0,98,90,73,29.92,29.84,10,1,13,0.04
2012-12-13,57.1,40.8,32.3,48.0,37.5,31.5,99,89,57,29.95,29.87,10,0,13,0.02
2012-12-14,55.2,42.3,33.2,48.2,40.2,32.2,100,93,71,30.06,29.83,3,0,5,0.01
2012-12-15,46.9,41.8,34.9,46.4,41.1,34.2,99,97,96,30.08,29.98,7,0,13,0.13
2012-12-16,55.1,50.3,45.1,53.9,49.3,44.2,98,96,91,30.10,30.00,12,1,13,0.13
2012-12-17,56.2,52.2,41.0,55.4,49.7,38.9,98,91,78,30.07,29.98,15,2,18,0.25
2012-12-18,51.1,41.3,33.2,42.7,36.1,31.1,98,83,61,30.23,30.02,23,3,23,0.01
2012-12-19,57.9,39.1,29.6,42.2,33.8,28.3,97,83,46,30.33,30.22,4,0,7,0.01
2012-12-20,57.8,48.2,33.1,50.5,43.5,31.5,96,84,67,30.22,29.95,17,3,22,0.11
2012-12-21,55.1,52.5,51.0,53.5,51.6,49.8,98,97,92,29.96,29.84,27,4,27,1.73
2012-12-22,57.3,52.1,48.5,53.6,49.0,46.5,97,89,73,30.06,29.83,14,2,22,0.90
2012-12-23,56.6,52.1,44.6,56.0,51.0,43.7,100,96,87,30.05,29.84,20,2,25,1.68
2012-12-24,55.2,46.2,40.6,51.1,43.8,39.6,100,92,69,30.22,30.03,6,0,8,0.00
2012-12-25,48.4,44.1,39.7,47.8,43.6,38.9,100,98,97,30.17,29.79,9,0,13,1.60
2012-12-26,53.3,48.9,43.8,49.4,46.0,41.0,97,90,81,30.12,29.87,19,4,23,0.39
2012-12-27,54.4,46.8,39.5,46.6,42.3,38.5,97,85,68,30.18,30.11,13,1,15,0.00
2012-12-28,49.4,42.9,36.8,46.1,41.1,36.0,98,94,79,30.19,30.04,4,0,7,0.37
2012-12-29,57.5,44.8,36.4,49.2,42.4,35.4,98,92,66,30.10,30.02,5,0,9,0.12
2012-12-30,55.8,41.1,33.5,47.7,38.6,32.7,98,91,69,30.21,30.07,12,1,14,0.01
2012-12-31,60.2,42.1,31.5,48.4,38.5,30.6,98,88,58,30.31,30.21,5,0,6,0.01
2013-1-1,59.0,43.3,33.2,43.8,38.0,31.7,98,84,49,30.29,30.21,7,0,10,0.00